RH
56 55 51 53 52 53 56 61 68 58 57 53 49 45 45 44 47 49 47 45 45 50 53 54 52 49 49 46 45 45 45 45 43 47 49 50 46 48 49 54 62 60 59 63
59 55 45 43 43 44 45 46 51 55 53 51 48 46 43 45 48 50 52 49 44 40 45 48 50 50 49 48 46 46 42 38 45 48 47 50 53 55 53 53 59 63 60 63
61 62 56 53 43 40 41 49 52 54 48 45 43 42 44 43 44 46 51 54 51 45 42 48 51 51 50 48 52 48 47 44 44 47 47 49 53 57 57 58 60 62 63 67
64 66 60 42 41 44 51 48 53 49 44 47 45 46 43 43 41 45 49 52 54 50 47 43 41 46 53 56 54 54 50 47 46 48 46 45 41 43 44 46 50 58 69 73
63 58 44 42 42 42 44 47 53 57 54 52 50 43 53 48 48 47 48 55 53 54 51 47 46 49 52 58 58 58 55 51 49 50 47 47 45 45 46 43 45 50 56 69
68 56 52 44 49 43 38 49 53 51 57 55 57 62 56 57 60 53 53 54 54 54 54 52 52 52 52 53 55 57 57 58 58 55 57 53 51 54 54 55 56 53 53 58
63 66 57 57 58 55 57 65 57 50 54 54 55 58 61 58 58 65 58 55 53 53 57 57 56 54 51 50 53 60 60 57 58 58 62 67 61 56 59 59 62 64 59 58
68 68 69 51 56 54 58 58 56 57 59 58 56 54 58 63 62 61 65 62 58 58 60 61 59 59 59 56 59 59 61 60 60 64 66 70 73 69 69 71 73 76 67 64
65 63 68 83 71 61 63 63 60 58 52 48 47 48 57 62 70 68 66 70 68 64 64 66 66 63 67 62 64 66 65 66 68 71 71 75 84 87 84 78 80 74 70 68
78 66 62 64 60 58 54 53 55 53 46 48 47 50 59 63 64 66 72 69 78 76 73 72 71 70 71 69 69 69 71 72 74 75 82 81 84 84 82 83 80 77 78 78
56 53 53 54 57 55 53 52 49 46 44 45 45 49 55 69 80 75 72 69 77 82 82 79 79 74 73 75 78 80 82 81 84 83 81 79 82 84 83 85 82 84 85 86
61 65 61 58 57 58 55 53 51 50 52 56 58 53 59 70 77 81 83 76 73 78 83 87 87 88 85 82 80 79 81 82 84 85 85 87 90 92 88 91 90 93 93 95
65 64 63 62 63 62 62 62 60 57 56 63 64 65 62 65 73 86 86 85 81 76 80 81 88 95 97 96 96 92 93 92 93 93 92 91 93 97 98 99 99 98 97 96
67 66 68 70 71 69 67 65 64 61 62 65 68 71 72 70 73 86 90 89 86 78 73 79 80 86 95 94 97 99 99 99 97 98 99 99 98 98 98 99 98 98 98 98
69 72 71 69 70 70 72 73 72 71 69 73 74 75 82 91 84 86 86 87 87 82 79 78 81 83 86 90 95 95 97 98 99 97 97 98 97 98 97 97 96 95 96 97
71 67 67 66 68 73 76 80 80 80 80 80 87 86 91 96 95 93 93 90 89 86 86 83 79 84 87 85 84 81 91 96 97 97 97 97 97 97 97 96 97 97 96 96
70 70 70 69 72 79 84 87 88 88 91 92 94 94 95 96 96 93 92 90 88 90 89 89 89 84 87 85 89 95 92 92 92 94 94 96 97 96 96 96 96 95 95 96
73 74 73 74 74 76 82 93 92 95 96 97 96 98 96 93 95 92 91 90 88 86 87 90 91 91 90 91 88 87 88 91 93 96 97 96 97 97 97 96 96 96 96 96
72 73 75 79 80 82 82 90 94 94 97 97 97 97 97 94 91 92 92 91 92 91 90 91 90 95 97 95 91 90 93 97 97 96 97 97 97 96 96 97 97 96 95 94
83 84 84 85 84 85 86 88 93 93 92 93 97 97 97 98 97 95 94 93 95 96 96 97 96 94 96 97 93 92 92 93 95 96 96 96 97 96 93 88 82 75 67 59
96 97 97 96 91 88 88 92 95 96 95 95 96 97 97 97 96 94 93 93 95 96 95 96 96 96 96 94 94 92 88 83 77 72 69 64 59 55 52 50 49 49 48 44
95 97 98 98 98 97 94 95 97 97 97 97 97 97 97 97 96 95 95 95 95 94 89 84 80 76 72 67 64 61 57 54 52 51 48 46 45 43 40 38 37 36 35 32
98 98 97 98 98 98 97 97 97 97 97 97 97 97 98 98 98 97 91 84 77 70 66 61 58 55 53 49 46 44 43 41 40 38 36 34 33 31 28 25 22 19 17 17
98 98 98 98 98 98 98 98 97 98 98 98 98 97 93 84 75 70 63 58 55 52 49 47 45 44 43 42 40 38 36 34 32 29 26 22 18 16 16 17 17 17 18 20
98 98 98 98 98 98 98 98 98 98 95 87 79 74 69 64 60 57 54 51 48 46 45 43 42 40 38 35 31 27 23 20 18 17 17 16 17 17 18 19 20 21 22 24
88 90 93 97 98 98 98 97 92 86 81 76 71 66 62 59 55 52 49 46 45 43 41 38 34 30 25 22 20 18 18 17 17 17 18 19 20 21 22 23 24 24 26 28
88 88 88 88 86 82 79 79 77 72 69 66 61 57 51 48 45 43 41 38 34 30 26 24 22 20 19 18 18 18 19 19 20 21 22 23 24 24 25 26 27 29 31 32